Simultaneous Nadir Overpasses (SNOs) Predictions

Prediction of SNOs between GOES-17 and AQUA Satellite Orbit:

Table of predicted SNOs for the next 14.0 days since TLE Epoch: 5/28/2022
Index Date Time (GOES-17) GOES-17 Lat,Lon AQUA Lat,Lon Distance(km) Time Diff (sec)
1 05/29/2022 22:36:58 0.00,-137.18 0.43,-135.06 240.32 80
2 05/30/2022 11:00:48 -0.00,-137.18 0.63,-140.20 343.19 80
3 06/01/2022 10:48:16 -0.01,-137.17 0.00,-137.15 1.69 80
4 06/03/2022 10:33:04 -0.01,-137.14 -0.65,-134.10 345.52 80
5 06/03/2022 22:57:03 0.01,-137.13 -0.43,-139.27 243.01 80
6 06/05/2022 22:41:50 0.01,-137.10 0.19,-136.22 100.84 80
7 06/06/2022 11:05:40 -0.00,-137.10 0.91,-141.35 483.07 80
8 06/07/2022 22:29:17 0.01,-137.07 0.83,-133.16 444.42 80
9 06/08/2022 10:53:07 -0.00,-137.07 0.27,-138.29 139.62 80
10 06/10/2022 10:37:54 -0.00,-137.03 -0.39,-135.24 203.36 80
11 06/10/2022 22:59:12 0.00,-137.01 -0.72,-140.40 385.51 80
